Greensboro, NC

4:17 PM EDT on September 29, 2016 (GMT -0400)
Piedmont Triad International

Weather History for KGSO - July, 2012

Change the Weather History Date:

Monday, July 9, 2012

  Actual Average Record
Temperature  
Mean Temperature 84 °F 79 °F  
Max Temperature 96 °F 88 °F 101 °F (1993)
Min Temperature 71 °F 69 °F 55 °F (1918)
Degree Days  
Heating Degree Days 0 0  
Month to date heating degree days 0 0  
Since 1 June heating degree days 4 6  
Since 1 July heating degree days 0 0  
Cooling Degree Days 19 14  
Month to date cooling degree days 177 120  
Year to date cooling degree days 722 586  
Since 1 June cooling degree days 460 427  
Growing Degree Days 34 (Base 50)    
Moisture  
Dew Point 69 °F    
Average Humidity 67    
Maximum Humidity 93    
Minimum Humidity 41    
Precipitation  
Precipitation 2.97 in 0.14 in 2.97 in (2012)
Month to date precipitation 3.29 1.15  
Year to date precipitation 18.98 21.58  
Sea Level Pressure  
Sea Level Pressure 29.90 in    
Wind  
Wind Speed 6 mph (ENE)    
Max Wind Speed 33 mph    
Max Gust Speed 52 mph    
Visibility 8 miles    
Events Rain , Thunderstorm    
T = Trace of Precipitation, MM = Missing Value Source: NWS Daily Summary

Daily Weather History Graph

Daily Weather History Graph

Search for Another Location

Airport or City:

Trip Planner

Search our weather history database for the weather conditions in past years. The results will help you decide how hot, cold, wet, or windy it might be!

Date:

Astronomy

Jul. 09, 2012 Rise Set
Actual Time 6:10 AM EDT 8:39 PM EDT
Civil Twilight 5:41 AM EDT 9:08 PM EDT
Nautical Twilight 5:04 AM EDT 9:45 PM EDT
Astronomical Twilight 4:23 AM EDT 10:26 PM EDT
Moon No Moon Rise 12:22 PM EDT (7/9)
Length of Visible Light 15h 27m
Length of Day
14h 28m
Waning Gibbous, 64% of the Moon is Illuminated
Jul 9
Waning Gibbous
Jul 10
Last Quarter
Jul 19
New
Jul 26
First Quarter
Aug 1
Full

Hourly Weather History & Observations

Time (EDT) Temp. Heat Index Dew Point Humidity Pressure Visibility Wind Dir Wind Speed Gust Speed Precip Events Conditions
12:54 AM 84.0 °F 88.4 °F 70.0 °F 63% 29.88 in 10.0 mi NNE 8.1 mph - N/A   Mostly Cloudy
1:54 AM 81.0 °F 84.1 °F 69.1 °F 67% 29.88 in 10.0 mi ENE 3.5 mph - N/A   Clear
2:54 AM 79.0 °F - 70.0 °F 74% 29.87 in 10.0 mi North 4.6 mph - N/A   Clear
3:54 AM 78.1 °F - 69.1 °F 74% 29.85 in 10.0 mi Calm Calm - N/A   Clear
4:54 AM 75.0 °F - 69.1 °F 82% 29.84 in 9.0 mi SW 4.6 mph - N/A   Clear
5:54 AM 75.9 °F - 69.1 °F 79% 29.85 in 9.0 mi Calm Calm - N/A   Clear
6:54 AM 75.0 °F - 69.1 °F 82% 29.87 in 7.0 mi North 3.5 mph - N/A   Clear
7:54 AM 80.1 °F 82.9 °F 69.1 °F 69% 29.88 in 9.0 mi Calm Calm - N/A   Clear
8:54 AM 84.0 °F 87.8 °F 69.1 °F 61% 29.91 in 10.0 mi NNE 6.9 mph - N/A   Clear
9:54 AM 86.0 °F 88.8 °F 66.9 °F 53% 29.91 in 10.0 mi NE 8.1 mph - N/A   Clear
10:54 AM 89.1 °F 92.9 °F 68.0 °F 50% 29.91 in 10.0 mi North 8.1 mph - N/A   Clear
11:54 AM 89.1 °F 92.9 °F 68.0 °F 50% 29.91 in 10.0 mi Variable 5.8 mph - N/A   Clear
12:54 PM 91.9 °F 96.9 °F 69.1 °F 47% 29.91 in 10.0 mi Variable 6.9 mph - N/A   Scattered Clouds
1:54 PM 91.9 °F 97.4 °F 70.0 °F 48% 29.89 in 10.0 mi ENE 8.1 mph - N/A   Scattered Clouds
2:54 PM 93.9 °F 98.6 °F 68.0 °F 43% 29.86 in 10.0 mi NNE 5.8 mph - N/A   Scattered Clouds
3:54 PM 93.9 °F 98.6 °F 68.0 °F 43% 29.86 in 10.0 mi North 4.6 mph - N/A   Scattered Clouds
4:54 PM 93.9 °F 97.0 °F 66.0 °F 40% 29.83 in 10.0 mi NNW 4.6 mph - N/A   Scattered Clouds
5:54 PM 93.0 °F 95.9 °F 66.0 °F 41% 29.84 in 10.0 mi NNE 3.5 mph - N/A   Scattered Clouds
6:54 PM 91.0 °F 95.2 °F 68.0 °F 47% 29.83 in 10.0 mi North 6.9 mph - N/A   Scattered Clouds
7:24 PM 86.0 °F 90.4 °F 69.8 °F 58% 29.90 in 10.0 mi NE 28.8 mph 40.3 mph N/A Thunderstorm Thunderstorm
7:54 PM 79.0 °F - 68.0 °F 69% 29.91 in 7.0 mi East 11.5 mph 33.4 mph N/A Thunderstorm Thunderstorm
8:12 PM 77.0 °F - 69.8 °F 78% 29.96 in 7.0 mi South 12.7 mph - N/A Thunderstorm Thunderstorm
8:37 PM 73.4 °F - 69.8 °F 88% 29.98 in 1.5 mi East 5.8 mph - 0.06 in Rain , Thunderstorm Heavy Thunderstorms and Rain
8:54 PM 73.0 °F - 68.0 °F 84% 29.94 in 0.8 mi South 19.6 mph 51.8 mph 0.88 in Rain , Thunderstorm Light Thunderstorms and Rain
9:03 PM 73.4 °F - 71.6 °F 94% 29.97 in 0.8 mi ESE 11.5 mph 25.3 mph 0.64 in Rain , Thunderstorm Heavy Thunderstorms and Rain
9:21 PM 71.6 °F - 69.8 °F 94% 29.97 in 6.0 mi ESE 13.8 mph - 0.94 in Rain , Thunderstorm Light Thunderstorms and Rain
9:34 PM 71.6 °F - 69.8 °F 94% 29.99 in 1.0 mi SE 9.2 mph - 1.40 in Rain , Thunderstorm Heavy Thunderstorms and Rain
9:54 PM 72.0 °F - 69.1 °F 91% 29.96 in 2.5 mi ESE 13.8 mph - 1.70 in Rain , Thunderstorm Thunderstorms and Rain
10:14 PM 71.6 °F - 68.0 °F 88% 30.00 in 5.0 mi East 9.2 mph - 0.07 in Rain Light Rain
10:54 PM 71.1 °F - 70.0 °F 96% 29.96 in 3.0 mi East 8.1 mph - 0.25 in Rain Heavy Rain
11:54 PM 72.0 °F - 70.0 °F 93% 29.96 in 10.0 mi ENE 5.8 mph - 0.14 in   Mostly Cloudy